Home   Weather   Celje   Past weeks

Flag for Slovenia Past Weather in Celje, Slovenia — Yesterday and Last 2 Weeks

Now
83 °F

Warm.


Feels Like: 83 °F
Forecast: 62 / 85 °F
Wind: 6 mph from West

Location: Celje

Current Time: Jul 28, 2017 at 7:17:28 pm

Latest Report: Jul 28, 2017 at 6:00 pm


Visibility: N/A

Pressure: 29.82 "Hg

Humidity: 43%

Dew Point: 59 °F

Location of CeljeLocation

Past Weather in Celje — Graph

°F

Celje Temperature Yesterday

Maximum temperature yesterday: 79 °F (at 4:00 pm)
Minimum temperature yesterday: 56 °F (at 1:00 am)
Average temperature yesterday: 65 °F

High & Low Weather Summary for the Past Weeks

 TemperatureHumidityPressure
High92 °F (Jul 22, 3:00 pm)97% (Jul 26, 4:00 am)30.26 "Hg (Jul 26, 4:00 am)
Low47 °F (Jul 17, 5:00 am)29% (Jul 19, 5:00 pm)29.63 "Hg (Jul 25, 5:00 pm)
Average68 °F70%29.92 "Hg
* Reported Jul 13 6:00 pm — Jul 28 6:00 pm, Celje. Weather by CustomWeather, © 2017

Note: Actual official high and low records may vary slightly from our data, if they occured in-between our weather recording intervals... More about our weather records

Advertising

Celje Weather History for the Previous 24 Hours

Scroll right to see more
 ConditionsComfort  
Time TempWeatherWind HumidityBarometerVisibility
6:00 pm
Fri, Jul 28
83 °FWarm.6 mph43%29.82 "HgN/A
5:00 pm86 °FWarm.3 mph45%29.82 "HgN/A
4:00 pm85 °FWarm.3 mph42%29.83 "HgN/A
2:00 pm81 °FWarm.1 mph44%29.86 "HgN/A
1:00 pm81 °FWarm.1 mph43%29.86 "HgN/A
12:00 pm78 °FWarm.1 mph51%29.88 "HgN/A
11:00 am75 °FMild.1 mph54%29.89 "HgN/A
10:00 am72 °FMild.2 mph60%29.90 "HgN/A
9:00 am67 °FMild.2 mph74%29.91 "HgN/A
8:00 am63 °FPartly sunny.1 mph84%29.90 "Hg34 mi
7:00 am60 °FCool.No wind89%29.90 "HgN/A
6:00 am59 °FCool.1 mph94%29.89 "HgN/A
5:00 am58 °FCool.1 mph94%29.89 "HgN/A
4:00 am58 °FCool.1 mph92%29.88 "HgN/A
3:00 am59 °FCool.1 mph90%29.88 "HgN/A
2:00 am59 °FCool.1 mph93%29.88 "HgN/A
1:00 am58 °FCool.1 mph91%29.88 "HgN/A
12:00 am59 °FCool.1 mph89%29.88 "HgN/A
11:00 pm
Thu, Jul 27
61 °FCool.1 mph87%29.86 "HgN/A
10:00 pm65 °FMild.1 mph79%29.85 "HgN/A
9:00 pm70 °FMild.1 mph64%29.82 "HgN/A
8:00 pm73 °FMild.1 mph54%29.81 "HgN/A
7:00 pm73 °FMild.1 mph69%29.80 "HgN/A
Weather by CustomWeather, © 2017

See weather overviewHow to use our weather pages